Flag for United Kingdom Weather past 2 weeks in Crawley, England, United Kingdom

Now
57 °F

Partly cloudy.


Feels Like: 56 °F
Forecast: 53 / 61 °F
Wind: 7 mph from Southwest

Location: London / Gatwick Airport

Current Time: Oct 23, 2014 at 8:16:15 PM

Latest Report: Oct 23, 2014 at 7:50 PM


Visibility: N/A

Pressure: 30.07 "Hg

Humidity: 100%

Dew point: 57 °F

Location of CrawleyLocation

Historic Weather in Crawley — Graph

°F

Crawley temperature yesterday

Maximum temperature yesterday: 57 °F (at 12:50 PM)
Minimum temperature yesterday: 41 °F (at 6:20 AM)
Average temperature yesterday: 49 °F

Past Weeks' High & Low Weather Summary

 TemperatureHumidityPressure
High68 °F (Oct 18, 12:50 PM)100% (Oct 10, 4:20 AM)30.30 "Hg (Oct 10, 4:20 AM)
Low39 °F (Oct 12, 3:20 AM)48% (Oct 21, 3:20 PM)29.36 "Hg (Oct 8, 6:20 PM)
Average56 °F87%29.81 "Hg
* Reported Oct 8 6:20 PM — Oct 23 6:50 PM, Crawley, Weather by CustomWeather, © 2014

Note: Actual official high and low records may vary slightly from our data, if they occured in-between our weather recording intervals... More about our weather records

Advertising

Crawley weather history for previous 24 hours

 ConditionsComfort  
Time TempWeatherWind HumidityBarometerVisibility
6:50 PM
Oct 23
57 °FPartly cloudy.5 mph94%30.07 "HgN/A
6:20 PM57 °FBroken clouds.7 mph94%30.07 "HgN/A
5:50 PM57 °FDrizzle. Broken clouds.8 mph94%30.07 "Hg4 mi
5:20 PM57 °FBroken clouds.8 mph94%30.07 "HgN/A
4:50 PM57 °FDrizzle. Broken clouds.8 mph94%30.07 "Hg5 mi
4:20 PM57 °FDrizzle. Broken clouds.9 mph94%30.09 "Hg4 mi
3:50 PM59 °FScattered showers. Broken clouds.9 mph88%30.09 "HgN/A
3:20 PM57 °FPartly sunny.7 mph94%30.09 "Hg6 mi
2:50 PM57 °FDrizzle. Broken clouds.8 mph94%30.09 "Hg4 mi
2:20 PM59 °FScattered showers. Broken clouds.8 mph82%30.12 "HgN/A
1:50 PM59 °FBroken clouds.8 mph82%30.12 "HgN/A
1:20 PM57 °FPartly sunny.10 mph88%30.12 "HgN/A
12:50 PM59 °FBroken clouds.10 mph82%30.12 "HgN/A
12:20 PM57 °FDrizzle. Partly sunny.8 mph88%30.15 "Hg6 mi
11:50 AM57 °FLight rain. Partly sunny.10 mph82%30.15 "Hg4 mi
11:20 AM57 °FPartly sunny.10 mph82%30.15 "HgN/A
10:50 AM57 °FScattered clouds.9 mph82%30.15 "HgN/A
10:20 AM55 °FScattered clouds.12 mph82%30.15 "HgN/A
9:50 AM55 °FPartly sunny.9 mph82%30.15 "HgN/A
9:20 AM55 °FPartly sunny.7 mph77%30.15 "HgN/A
8:50 AM54 °FPartly sunny.7 mph77%30.18 "HgN/A
8:20 AM54 °FPassing clouds.6 mph77%30.15 "HgN/A
7:50 AM54 °FPassing clouds.6 mph72%30.15 "HgN/A
7:20 AM54 °FOvercast.7 mph72%30.15 "HgN/A
6:50 AM54 °FPassing clouds.7 mph72%30.18 "HgN/A
6:20 AM54 °FPassing clouds.6 mph72%30.18 "HgN/A
5:50 AM54 °FPassing clouds.8 mph72%30.18 "HgN/A
5:20 AM54 °FPassing clouds.9 mph72%30.18 "HgN/A
4:50 AM54 °FPassing clouds.8 mph72%30.18 "HgN/A
4:20 AM54 °FPassing clouds.8 mph77%30.18 "HgN/A
3:50 AM52 °FPassing clouds.7 mph82%30.18 "HgN/A
3:20 AM52 °FPassing clouds.7 mph82%30.21 "HgN/A
2:50 AM52 °FPassing clouds.8 mph82%30.21 "HgN/A
2:20 AM52 °FPassing clouds.7 mph82%30.21 "HgN/A
1:50 AM52 °FPassing clouds.7 mph82%30.21 "HgN/A
12:50 AM52 °FPassing clouds.6 mph82%30.21 "HgN/A
12:20 AM52 °FPassing clouds.7 mph82%30.21 "HgN/A
11:50 PM
Oct 22
52 °FPassing clouds.7 mph82%30.24 "HgN/A
11:20 PM52 °FPassing clouds.6 mph82%30.24 "HgN/A
10:50 PM52 °FPassing clouds.5 mph82%30.24 "HgN/A
10:20 PM52 °FPassing clouds.6 mph82%30.24 "HgN/A
9:50 PM52 °FPassing clouds.6 mph82%30.24 "HgN/A
9:20 PM52 °FPassing clouds.6 mph82%30.24 "HgN/A
8:50 PM52 °FClear.5 mph82%30.24 "Hg10 mi
8:20 PM52 °FPassing clouds.5 mph82%30.24 "HgN/A
Weather by CustomWeather, © 2014

See weather overviewHow to use our weather pages